Hourly Data Report for October 14, 2004

SHERBROOKE A
QUEBEC

45°26'00.000" N
71°41'00.000" W
241.40 m
7028124
71610
YSC

Download Data

Hourly Data (October 2004)
Hourly Data Report for October 14, 2004
TIME
LST
Temp Definition
°C
Dew Point Definition
°C
Rel Hum Definition
%
Precip. Amount Definition
mm

Wind Dir Definition
10's deg

Wind Spd Definition
km/h
Visibility Definition
km
Stn Press Definition
kPa
Hmdx Definition


Wind Chill Definition


Weather Definition


00:00 1.3 -0.7 87   10 7 15.0 97.73      
01:00 0.8 -1.3 86   11 6 15.0 97.73      
02:00 0.2 -1.6 88     0 15.0 97.73      
03:00 0.3 -1.5 88   10 7 15.0 97.74      
04:00 0.1 -1.5 89   8 6 15.0 97.71      
05:00 0.6 -1.3 87   9 4 15.0 97.73      
06:00 0.7 -1.1 88   9 9 15.0 97.71      
07:00 1.1 -1.0 86   9 11 24.1 97.74     Mostly Cloudy
08:00 3.1 1.0 86   8 11 24.1 97.78     Mostly Cloudy
09:00 7.0 3.0 76   7 7 24.1 97.74     Mostly Cloudy
10:00 12.0 4.3 59   3 6 24.1 97.68     Mostly Cloudy
11:00 15.7 5.5 51   6 11 24.1 97.63     Mostly Cloudy
12:00 17.5 4.3 42     0 24.1 97.60     Mostly Cloudy
13:00 19.1 5.1 40   3 6 24.1 97.53     Mainly Clear
14:00 20.4 5.4 37   5 6 24.1 97.46     Mainly Clear
15:00 19.7 5.1 38   9 6 24.1 97.45     Mainly Clear
16:00 18.0 3.9 39   14 11 24.1 97.47     Mainly Clear
17:00 13.9 4.0 51   14 9 15.0 97.51      
18:00 10.5 4.5 66   11 7 15.0 97.53      
19:00 13.4 5.8 60   10 7 15.0 97.56      
20:00 13.2 6.3 63   8 9 15.0 97.61      
21:00 10.0 6.0 76   7 6 15.0 97.62      
22:00 9.4 6.4 82   8 4 15.0 97.64      
23:00 12.5 7.4 71   12 7 15.0 97.65      

Notes on Data Quality.

Legend

  • E = Estimated
  • M = Missing
  • NA = Not Available*
  • [empty] = Indicates an unobserved value
Date modified: